Appleton, MN

3:13 AM CST on November 18, 2019 (GMT -0600)
Appleton Municipal

Weather History for KAQP - August, 2019

Change the Weather History Date:

Sunday, August 18, 2019

  Actual Average Record
Temperature  
Mean Temperature 65 °F -  
Max Temperature 73 °F 77 °F 102 °F (2003)
Min Temperature 55 °F 55 °F 39 °F (2002)
Growing Degree Days 15 (Base 50)    
Moisture  
Dew Point 53 °F    
Average Humidity 68    
Maximum Humidity 94    
Minimum Humidity 38    
Precipitation  
Precipitation 0.00 in - - ()
Sea Level Pressure  
Sea Level Pressure 29.84 in    
Wind  
Wind Speed 5 mph (NW)    
Max Wind Speed 18 mph    
Max Gust Speed 25 mph    
Visibility 10 miles    
Events Rain , Thunderstorm    
Averages and records for this station are not official NWS values.
T = Trace of Precipitation, MM = Missing Value Source: NWS Daily Summary

Daily Weather History Graph

Daily Weather History Graph

Search for Another Location

Airport or City:

Astronomy

Aug. 18, 2019 Rise Set
Actual Time 6:28 AM CDT 8:26 PM CDT
Civil Twilight 5:56 AM CDT 8:57 PM CDT
Nautical Twilight 5:17 AM CDT 9:36 PM CDT
Astronomical Twilight 4:34 AM CDT 10:19 PM CDT
Moon 10:13 PM CDT 9:20 AM CDT
Length of Visible Light 15h 01m
Length of Day
13h 57m
Waning Gibbous, 91% of the Moon is Illuminated
Aug 18
Waning Gibbous
Aug 23
Last Quarter
Aug 30
New
Sep 5
First Quarter
Sep 13
Full

Hourly Weather History & Observations

Time (CDT) Temp. Dew Point Humidity Pressure Visibility Wind Dir Wind Speed Gust Speed Precip Events Conditions
12:11 AM 64.4 °F 60.8 °F 88% 29.76 in 10.0 mi WNW 8.1 mph - N/A Rain , Thunderstorm Thunderstorms and Rain
12:31 AM 64.4 °F 60.8 °F 88% 29.72 in 10.0 mi Calm Calm - N/A Rain , Thunderstorm Rain
12:51 AM 64.4 °F 60.8 °F 88% 29.71 in 5.0 mi Calm Calm - N/A Rain , Thunderstorm Thunderstorms and Rain
1:11 AM 64.4 °F 60.8 °F 88% 29.71 in 7.0 mi Calm Calm - N/A Rain , Thunderstorm Thunderstorms and Rain
1:32 AM 64.4 °F 60.8 °F 88% 29.67 in 10.0 mi Calm Calm - N/A Rain Light Rain
1:50 AM 64.4 °F 60.8 °F 88% 29.67 in 10.0 mi Calm Calm - N/A Rain Light Rain
2:12 AM 64.4 °F 60.8 °F 88% 29.69 in 10.0 mi NW 6.9 mph - N/A   Clear
2:30 AM 64.4 °F 60.8 °F 88% 29.69 in 10.0 mi WNW 4.6 mph - N/A   Clear
2:52 AM 64.4 °F 60.8 °F 88% 29.72 in 10.0 mi NW 8.1 mph - N/A   Scattered Clouds
3:13 AM 64.4 °F 62.6 °F 94% 29.72 in 10.0 mi NW 6.9 mph - N/A   Mostly Cloudy
3:31 AM 64.4 °F 59.0 °F 83% 29.73 in 10.0 mi NNW 12.7 mph 20.7 mph N/A   Overcast
3:50 AM 62.6 °F 55.4 °F 77% 29.74 in 10.0 mi NNW 18.4 mph 25.3 mph N/A   Overcast
4:13 AM 62.6 °F 55.4 °F 77% 29.75 in 10.0 mi NNW 13.8 mph 19.6 mph N/A   Overcast
4:31 AM 62.6 °F 55.4 °F 77% 29.76 in 10.0 mi NNW 12.7 mph 18.4 mph N/A   Overcast
4:51 AM 60.8 °F 55.4 °F 82% 29.76 in 10.0 mi NNW 8.1 mph - N/A   Mostly Cloudy
5:11 AM 60.8 °F 55.4 °F 82% 29.75 in 10.0 mi NNW 8.1 mph - N/A   Scattered Clouds
5:31 AM 60.8 °F 55.4 °F 82% 29.76 in 10.0 mi NW 9.2 mph - N/A   Scattered Clouds
5:53 AM 60.8 °F 55.4 °F 82% 29.75 in 10.0 mi NW 8.1 mph - N/A   Overcast
6:11 AM 60.8 °F 55.4 °F 82% 29.75 in 10.0 mi NNW 8.1 mph - N/A   Overcast
6:31 AM 60.8 °F 53.6 °F 77% 29.77 in 10.0 mi NW 8.1 mph - N/A   Overcast
6:53 AM 59.0 °F 53.6 °F 82% 29.77 in 10.0 mi NW 6.9 mph - N/A   Scattered Clouds
7:11 AM 59.0 °F 53.6 °F 82% 29.78 in 10.0 mi NW 6.9 mph - N/A   Clear
7:31 AM 60.8 °F 55.4 °F 82% 29.80 in 10.0 mi NW 10.4 mph - N/A   Clear
8:32 AM 62.6 °F 53.6 °F 72% 29.83 in 10.0 mi NW 9.2 mph - N/A   Clear
8:55 AM 62.6 °F 53.6 °F 72% 29.85 in 10.0 mi NW 8.1 mph - N/A   Clear
9:10 AM 62.6 °F 51.8 °F 68% 29.85 in 10.0 mi NNW 10.4 mph - N/A   Clear
9:35 AM 62.6 °F 51.8 °F 68% 29.86 in 10.0 mi NW 9.2 mph - N/A   Clear
9:51 AM 62.6 °F 53.6 °F 72% 29.87 in 10.0 mi NNW 5.8 mph - N/A   Clear
10:11 AM 62.6 °F 53.6 °F 72% 29.87 in 10.0 mi NNW 3.5 mph - N/A   Clear
10:33 AM 62.6 °F 51.8 °F 68% 29.89 in 10.0 mi WNW 4.6 mph - N/A   Clear
10:51 AM 64.4 °F 51.8 °F 64% 29.89 in 10.0 mi NW 8.1 mph - N/A   Clear
12:11 PM 66.2 °F 48.2 °F 52% 29.90 in 10.0 mi NW 4.6 mph - N/A   Clear
12:31 PM 68.0 °F 48.2 °F 49% 29.91 in 10.0 mi WNW 3.5 mph - N/A   Clear
12:50 PM 68.0 °F 48.2 °F 49% 29.91 in 10.0 mi WNW 8.1 mph - N/A   Clear
1:12 PM 69.8 °F 46.4 °F 43% 29.91 in 10.0 mi Calm Calm - N/A   Clear
1:31 PM 69.8 °F 46.4 °F 43% 29.91 in 10.0 mi NW 9.2 mph - N/A   Clear
1:51 PM 69.8 °F 48.2 °F 46% 29.91 in 10.0 mi West 9.2 mph - N/A   Clear
2:11 PM 69.8 °F 46.4 °F 43% 29.91 in 10.0 mi Calm Calm - N/A   Clear
2:32 PM 71.6 °F 44.6 °F 38% 29.91 in 10.0 mi WNW 11.5 mph - N/A   Clear
2:51 PM 71.6 °F 46.4 °F 41% 29.91 in 10.0 mi West 9.2 mph - N/A   Clear
3:11 PM 71.6 °F 46.4 °F 41% 29.91 in 10.0 mi WNW 10.4 mph - N/A   Clear
3:31 PM 71.6 °F 44.6 °F 38% 29.90 in 10.0 mi Calm Calm - N/A   Clear
3:54 PM 71.6 °F 46.4 °F 41% 29.89 in 10.0 mi Calm Calm - N/A   Clear
4:10 PM 71.6 °F 46.4 °F 41% 29.89 in 10.0 mi Calm Calm - N/A   Clear
4:34 PM 71.6 °F 46.4 °F 41% 29.88 in 10.0 mi Calm Calm - N/A   Clear
4:51 PM 71.6 °F 46.4 °F 41% 29.88 in 10.0 mi Calm Calm - N/A   Clear
5:10 PM 71.6 °F 48.2 °F 43% 29.88 in 10.0 mi Calm Calm - N/A   Clear
5:34 PM 73.4 °F 48.2 °F 41% 29.88 in 10.0 mi Calm Calm - N/A   Clear
5:50 PM 73.4 °F 46.4 °F 38% 29.88 in 10.0 mi Calm Calm - N/A   Clear
6:12 PM 71.6 °F 46.4 °F 41% 29.88 in 10.0 mi Calm Calm - N/A   Clear
6:31 PM 71.6 °F 44.6 °F 38% 29.88 in 10.0 mi Calm Calm - N/A   Clear
6:50 PM 71.6 °F 46.4 °F 41% 29.88 in 10.0 mi Calm Calm - N/A   Clear
7:12 PM 71.6 °F 48.2 °F 43% 29.88 in 10.0 mi Calm Calm - N/A   Clear
7:31 PM 69.8 °F 51.8 °F 53% 29.88 in 10.0 mi Calm Calm - N/A   Clear
7:50 PM 69.8 °F 51.8 °F 53% 29.88 in 10.0 mi Calm Calm - N/A   Clear
8:12 PM 66.2 °F 55.4 °F 68% 29.89 in 10.0 mi Calm Calm - N/A   Clear
8:31 PM 64.4 °F 55.4 °F 73% 29.89 in 10.0 mi Calm Calm - N/A   Clear
8:51 PM 60.8 °F 55.4 °F 82% 29.90 in 10.0 mi Calm Calm - N/A   Clear
9:11 PM 60.8 °F 55.4 °F 82% 29.91 in 10.0 mi Calm Calm - N/A   Clear
9:31 PM 60.8 °F 55.4 °F 82% 29.92 in 10.0 mi Calm Calm - N/A   Clear
9:52 PM 59.0 °F 55.4 °F 88% 29.92 in 10.0 mi Calm Calm - N/A   Clear
10:12 PM 59.0 °F 55.4 °F 88% 29.92 in 10.0 mi Calm Calm - N/A   Clear
10:31 PM 59.0 °F 55.4 °F 88% 29.93 in 10.0 mi Calm Calm - N/A   Clear
10:53 PM 57.2 °F 53.6 °F 88% 29.93 in 10.0 mi Calm Calm - N/A   Clear
11:11 PM 57.2 °F 55.4 °F 94% 29.94 in 10.0 mi Calm Calm - N/A   Clear
11:34 PM 57.2 °F 53.6 °F 88% 29.94 in 10.0 mi Calm Calm - N/A   Clear
11:50 PM 55.4 °F 51.8 °F 88% 29.94 in 10.0 mi Calm Calm - N/A   Clear